sat.trackr.live / text

‹ back to catalog

STARLINK-35016

NORAD 65341 · 2025-189U

PAYLOAD ACTIVE UNKNOWN

§ Identity

Operator
Country
US
Launch date
2025-08-27
Launch site
AFETR
Launch vehicle
Mass (kg)
RCS (m²)

Purposes: comms

External: N2YO · Heavens-Above · Gunter

§ Orbital elements

Epoch: 2026-05-25T03:49:40.310112Z

Period
94.10 min
Inclination
53.1590°
Eccentricity
0.0001157
Mean motion
15.30205929 rev/d
Perigee alt
474.4 km
Apogee alt
476.0 km
Semi-major
6,853.3 km
B*
4.3729e-4
RAAN
211.6145°
Arg perigee
87.4385°
Mean anomaly
272.6748°
Rev number
4,276

§ Raw data

STARLINK-350161 65341U 25189U   26145.15949433  .00012616  00000+0  43729-3 0  99932 65341  53.1590 211.6145 0001157  87.4385 272.6748 15.30205929 42764

JSON: /api/v1/satellites/65341 · /tle

For live sub-satellite position, see the globe view (requires WebGL).

§ Visibility from observer

Set your observer location to see the next 7 days of passes ≥ 10°. The values pass through the URL so the page stays shareable.

No JS? Fill the form by hand. The geolocation button needs JavaScript.